Time,TemperatureF,DewpointF,PressureIn,WindDirection,WindDirectionDegrees,WindSpeedMPH,WindSpeedGustMPH,Humidity,HourlyPrecipIn,Conditions,Clouds,dailyrainin,SoftwareType,DateUTC
2013-10-09 08:53:00,44.0,44.0,25.83,NNE,20,0.0,1.0,99,0.00,,,0.04,,2013-10-09 15:53:00,
2013-10-09 09:03:00,44.0,44.0,25.83,NNE,20,0.0,1.0,99,0.00,,,0.04,,2013-10-09 16:03:00,
2013-10-09 09:13:00,44.0,44.0,25.83,NNE,20,0.0,1.0,99,0.00,,,0.04,,2013-10-09 16:13:00,
2013-10-09 09:53:00,47.0,46.0,25.83,North,10,1.0,6.0,95,0.00,,,0.04,,2013-10-09 16:53:00,
2013-10-09 10:03:00,47.0,46.0,25.83,North,10,1.0,6.0,95,0.00,,,0.04,,2013-10-09 17:03:00,
2013-10-09 10:12:00,47.0,46.0,25.83,North,10,1.0,6.0,95,0.00,,,0.04,,2013-10-09 17:12:00,
2013-10-09 10:22:00,47.0,46.0,25.83,North,10,1.0,6.0,95,0.00,,,0.04,,2013-10-09 17:22:00,
2013-10-09 10:42:00,48.0,46.0,25.83,NNE,33,2.0,7.0,92,0.00,,,0.04,,2013-10-09 17:42:00,
2013-10-09 10:52:00,48.0,46.0,25.83,NNE,33,2.0,7.0,92,0.00,,,0.04,,2013-10-09 17:52:00,
2013-10-09 11:12:00,50.0,47.0,25.83,NNE,30,3.0,6.0,90,0.00,,,0.04,,2013-10-09 18:12:00,
2013-10-09 11:21:00,50.0,47.0,25.83,NNE,30,3.0,6.0,90,0.00,,,0.04,,2013-10-09 18:21:00,
2013-10-09 11:42:00,52.0,48.0,25.83,NNW,342,3.0,10.0,86,0.00,,,0.04,,2013-10-09 18:42:00,
2013-10-09 11:52:00,52.0,48.0,25.83,NNW,342,3.0,10.0,86,0.00,,,0.04,,2013-10-09 18:52:00,
2013-10-09 12:01:00,52.0,48.0,25.83,NNW,342,3.0,10.0,86,0.00,,,0.04,,2013-10-09 19:01:00,
2013-10-09 12:11:00,52.0,48.0,25.83,NNW,342,3.0,10.0,86,0.00,,,0.04,,2013-10-09 19:11:00,
2013-10-09 12:22:00,53.0,49.0,25.83,NW,309,4.0,8.0,85,0.00,,,0.04,,2013-10-09 19:22:00,
2013-10-09 12:42:00,54.0,49.0,25.83,NNE,20,3.0,7.0,83,0.00,,,0.03,,2013-10-09 19:42:00,
2013-10-09 12:52:00,54.0,49.0,25.83,NNE,20,3.0,7.0,83,0.00,,,0.03,,2013-10-09 19:52:00,
2013-10-09 13:02:00,54.0,49.0,25.83,NNE,20,3.0,7.0,83,0.00,,,0.03,,2013-10-09 20:02:00,
2013-10-09 13:11:00,54.0,49.0,25.83,NNE,20,3.0,7.0,83,0.00,,,0.03,,2013-10-09 20:11:00,
2013-10-09 13:43:00,55.0,50.0,25.83,NNW,338,4.0,10.0,84,0.00,,,0.03,,2013-10-09 20:43:00,
2013-10-09 13:52:00,54.0,49.0,25.83,North,356,6.0,12.0,83,0.00,,,0.03,,2013-10-09 20:52:00,
2013-10-09 14:02:00,54.0,49.0,25.83,North,356,6.0,12.0,83,0.00,,,0.03,,2013-10-09 21:02:00,
2013-10-09 14:11:00,54.0,49.0,25.83,North,356,6.0,12.0,83,0.00,,,0.03,,2013-10-09 21:11:00,
2013-10-09 14:22:00,54.0,49.0,25.83,North,356,6.0,12.0,83,0.00,,,0.03,,2013-10-09 21:22:00,
2013-10-09 14:44:00,56.0,51.0,25.83,NNW,329,4.0,10.0,82,0.00,,,0.00,,2013-10-09 21:44:00,
2013-10-09 14:53:00,55.0,50.0,25.83,NW,311,4.0,14.0,83,0.00,,,0.00,,2013-10-09 21:53:00,
2013-10-09 15:24:00,57.0,51.0,25.83,NW,323,4.0,17.0,79,0.00,,,0.00,,2013-10-09 22:24:00,
2013-10-09 15:34:00,57.0,51.0,25.83,NW,323,4.0,17.0,79,0.00,,,0.00,,2013-10-09 22:34:00,
2013-10-09 15:43:00,57.0,51.0,25.83,NW,323,4.0,17.0,79,0.00,,,0.00,,2013-10-09 22:43:00,
2013-10-09 15:53:00,57.0,51.0,25.83,NW,316,6.0,12.0,80,0.00,,,0.00,,2013-10-09 22:53:00,
2013-10-09 16:03:00,57.0,51.0,25.83,NW,316,6.0,12.0,80,0.00,,,0.00,,2013-10-09 23:03:00,
2013-10-09 16:11:00,57.0,51.0,25.83,NW,316,6.0,12.0,80,0.00,,,0.00,,2013-10-09 23:11:00,
2013-10-09 16:22:00,57.0,51.0,25.83,NW,316,6.0,12.0,80,0.00,,,0.00,,2013-10-09 23:22:00,
2013-10-09 16:53:00,56.0,50.0,25.83,NW,317,5.0,14.0,81,0.00,,,0.00,,2013-10-09 23:53:00,
2013-10-09 17:12:00,56.0,51.0,25.83,NW,312,7.0,12.0,82,0.00,,,0.00,,2013-10-10 00:12:00,
2013-10-09 17:22:00,56.0,51.0,25.83,NW,312,7.0,12.0,82,0.00,,,0.00,,2013-10-10 00:22:00,
2013-10-09 17:42:00,55.0,51.0,25.83,NW,318,4.0,13.0,85,0.00,,,0.00,,2013-10-10 00:42:00,
2013-10-09 17:52:00,55.0,51.0,25.83,NW,318,4.0,13.0,85,0.00,,,0.00,,2013-10-10 00:52:00,
2013-10-09 18:11:00,55.0,51.0,25.83,NW,318,5.0,13.0,86,0.00,,,0.00,,2013-10-10 01:11:00,
2013-10-09 18:21:00,55.0,51.0,25.83,NW,318,5.0,13.0,86,0.00,,,0.00,,2013-10-10 01:21:00,
2013-10-09 18:42:00,54.0,51.0,25.83,NW,322,4.0,15.0,90,0.00,,,0.00,,2013-10-10 01:42:00,
2013-10-09 18:52:00,54.0,51.0,25.83,NW,322,4.0,15.0,90,0.00,,,0.00,,2013-10-10 01:52:00,
2013-10-09 19:02:00,54.0,51.0,25.83,NW,322,4.0,15.0,90,0.00,,,0.00,,2013-10-10 02:02:00,
2013-10-09 19:12:00,54.0,51.0,25.83,NW,322,4.0,15.0,90,0.00,,,0.00,,2013-10-10 02:12:00,